Погода в Кумском

Россия / Республика Калмыкия     44°58′50″N   46°03′37″E
темп.,
°C
ветер,
м/с
пор.,
м/с
влажн.,
%
обл.,
%
осадки,
мм/ч
давл.,
гПа
погр.,
м
22 апреля, чт
чт2200:00+12сз357381 0.0 1021123
03:00+12с3576100 0.1 1021196
06:00+12с3775100 0.0 1022281
09:00+12с5879100 0.0 1023373
12:00+13ссв5777100 0.0 1023412
15:00+13ссв4575100 0.0 1023368
18:00+13с2375100 0.0 1023218
21:00+13с2375100 0.0 1022103
23 апреля, пт
пт2300:00+12сз3476100 0.1 1021126
03:00+11зсз4791100 2.9 1021301
06:00+11з3496100 4.1 1021161
09:00+12зсз5887100 7.2 1023327
12:00+13зюз5779100 0.3 1022457
15:00+19сз79405 0.3 10212105
18:00+17сз58430 0.0 1021375
21:00+14сз34525 0.0 102146
24 апреля, сб
сб2400:00+12с2260100 0.0 102018
03:00+12всв226596 0.0 101912
06:00+12ююв2263100 0.0 102018
09:00+16ююв224799 0.0 1020448
12:00+20ю333689 0.0 10191461
15:00+22ююз34315 0.0 10182092
18:00+20ююв663711 0.0 1019596
21:00+17ю695193 0.0 1020377
25 апреля, вс
вс2500:00+15ююз3659100 0.0 1020256
03:00+14з2258100 0.0 1020100
06:00+13с4776100 0.4 1020312
09:00+15св5572100 0.4 1021660
12:00+20всв5645100 0.0 10191656
15:00+21в653587 0.0 10172022
18:00+19вюв5537100 0.0 10161106
21:00+16всв4645100 0.0 1017291
26 апреля, пн
пн2600:00+13ссв71158100 0.0 1016441
03:00+12св61068100 0.0 1015335
06:00+12с6873100 0.0 1016430
09:00+14св446299 0.0 1016703
12:00+17с3351100 0.0 1015990
15:00+17с4450100 0.0 10141013
18:00+16ссз655593 0.0 1015883
21:00+14ссз6668100 0.0 1017463